TimeCST,TemperatureF,Dew PointF,Humidity,Sea Level PressureIn,VisibilityMPH,Wind Direction,Wind SpeedMPH,Gust SpeedMPH,PrecipitationIn,Events,Conditions,WindDirDegrees,DateUTC
12:15 AM,27.3,22.1,81,30.28,10.0,Calm,Calm,-,N/A,,Overcast,0,2012-11-14 06:15:00
12:35 AM,27.1,22.5,83,30.28,10.0,Calm,Calm,-,N/A,,Overcast,0,2012-11-14 06:35:00
12:55 AM,25.5,22.6,89,30.27,10.0,Calm,Calm,-,N/A,,Overcast,0,2012-11-14 06:55:00
1:15 AM,26.6,23.4,88,30.27,10.0,Calm,Calm,-,N/A,,Overcast,0,2012-11-14 07:15:00
1:35 AM,27.3,24.6,90,30.27,10.0,Calm,Calm,-,N/A,,Overcast,0,2012-11-14 07:35:00
1:55 AM,28.4,23.5,82,30.26,10.0,Calm,Calm,-,N/A,,Overcast,0,2012-11-14 07:55:00
2:15 AM,28.2,23.0,81,30.27,10.0,Calm,Calm,-,N/A,,Overcast,0,2012-11-14 08:15:00
2:35 AM,27.7,23.9,86,30.27,10.0,Calm,Calm,-,N/A,,Overcast,0,2012-11-14 08:35:00
2:55 AM,27.3,23.7,86,30.27,10.0,Calm,Calm,-,N/A,,Overcast,0,2012-11-14 08:55:00
3:15 AM,28.0,24.4,86,30.27,10.0,Calm,Calm,-,N/A,,Overcast,0,2012-11-14 09:15:00
3:35 AM,28.6,24.4,84,30.27,10.0,Calm,Calm,-,N/A,,Overcast,0,2012-11-14 09:35:00
3:55 AM,29.3,25.7,86,30.26,10.0,Calm,Calm,-,N/A,,Overcast,0,2012-11-14 09:55:00
4:15 AM,28.9,25.7,88,30.26,10.0,Calm,Calm,-,N/A,,Overcast,0,2012-11-14 10:15:00
4:35 AM,29.1,25.7,87,30.26,10.0,Calm,Calm,-,N/A,,Overcast,0,2012-11-14 10:35:00
4:55 AM,28.9,24.8,84,30.26,10.0,Calm,Calm,-,N/A,,Overcast,0,2012-11-14 10:55:00
5:15 AM,28.2,25.3,89,30.26,10.0,Calm,Calm,-,N/A,,Overcast,0,2012-11-14 11:15:00
5:35 AM,28.0,25.2,89,30.26,10.0,Calm,Calm,-,N/A,,Overcast,0,2012-11-14 11:35:00
5:55 AM,27.9,25.3,90,30.26,10.0,Calm,Calm,-,N/A,,Overcast,0,2012-11-14 11:55:00
6:15 AM,28.4,25.3,88,30.26,10.0,Calm,Calm,-,N/A,,Overcast,0,2012-11-14 12:15:00
6:35 AM,28.2,25.7,90,30.25,10.0,Calm,Calm,-,N/A,,Overcast,0,2012-11-14 12:35:00
6:55 AM,28.6,25.7,89,30.26,10.0,Calm,Calm,-,N/A,,Overcast,0,2012-11-14 12:55:00
7:15 AM,26.4,24.3,92,30.26,10.0,Calm,Calm,-,N/A,,Overcast,0,2012-11-14 13:15:00
7:35 AM,27.3,25.5,93,30.26,10.0,Calm,Calm,-,N/A,,Mostly Cloudy,0,2012-11-14 13:35:00
7:55 AM,26.6,25.3,95,30.26,10.0,Calm,Calm,-,N/A,,Mostly Cloudy,0,2012-11-14 13:55:00
8:15 AM,27.5,25.5,92,30.26,10.0,Calm,Calm,-,N/A,,Scattered Clouds,0,2012-11-14 14:15:00
8:35 AM,32.0,27.7,84,30.25,10.0,Calm,Calm,-,N/A,,Mostly Cloudy,0,2012-11-14 14:35:00
8:55 AM,35.4,28.0,75,30.25,10.0,SSW,4.6,-,N/A,,Mostly Cloudy,210,2012-11-14 14:55:00
9:15 AM,37.2,27.5,68,30.26,10.0,WSW,4.6,-,N/A,,Scattered Clouds,250,2012-11-14 15:15:00
9:35 AM,37.2,27.3,67,30.26,10.0,SW,4.6,-,N/A,,Clear,220,2012-11-14 15:35:00
9:55 AM,38.7,27.3,64,30.25,10.0,SSW,3.5,-,N/A,,Scattered Clouds,210,2012-11-14 15:55:00
10:15 AM,40.1,27.5,61,30.25,10.0,SSW,6.9,-,N/A,,Scattered Clouds,210,2012-11-14 16:15:00
10:35 AM,40.5,27.5,60,30.25,10.0,SW,6.9,-,N/A,,Overcast,220,2012-11-14 16:35:00
10:55 AM,40.5,27.3,59,30.24,10.0,SW,4.6,-,N/A,,Overcast,220,2012-11-14 16:55:00
11:15 AM,40.1,27.3,60,30.24,10.0,South,3.5,-,N/A,,Overcast,180,2012-11-14 17:15:00
11:35 AM,40.8,27.5,59,30.23,10.0,SSE,4.6,-,N/A,,Overcast,160,2012-11-14 17:35:00
11:55 AM,41.9,27.7,57,30.23,10.0,South,4.6,-,N/A,,Overcast,180,2012-11-14 17:55:00
12:15 PM,41.9,27.9,58,30.22,10.0,SW,3.5,-,N/A,,Overcast,220,2012-11-14 18:15:00
12:35 PM,42.3,27.9,57,30.21,10.0,Calm,Calm,-,N/A,,Overcast,0,2012-11-14 18:35:00
12:55 PM,42.8,28.0,56,30.21,10.0,Calm,Calm,-,N/A,,Overcast,0,2012-11-14 18:55:00
1:15 PM,42.4,27.7,56,30.21,10.0,Calm,Calm,-,N/A,,Overcast,0,2012-11-14 19:15:00
1:35 PM,42.3,29.1,60,30.20,10.0,NNE,3.5,-,N/A,,Overcast,20,2012-11-14 19:35:00
1:55 PM,41.2,30.2,65,30.19,10.0,Calm,Calm,-,N/A,,Overcast,0,2012-11-14 19:55:00
2:15 PM,41.5,30.0,64,30.19,10.0,East,3.5,-,N/A,,Mostly Cloudy,90,2012-11-14 20:15:00
2:35 PM,41.5,30.7,65,30.19,10.0,East,4.6,-,N/A,,Clear,100,2012-11-14 20:35:00
2:55 PM,41.2,30.7,66,30.18,10.0,ESE,3.5,-,N/A,,Clear,110,2012-11-14 20:55:00
3:15 PM,40.6,31.1,69,30.18,10.0,East,4.6,-,N/A,,Scattered Clouds,80,2012-11-14 21:15:00
3:35 PM,40.6,31.1,69,30.18,10.0,East,3.5,-,N/A,,Clear,80,2012-11-14 21:35:00
3:55 PM,39.0,30.9,73,30.18,10.0,ENE,3.5,-,N/A,,Clear,70,2012-11-14 21:55:00
4:15 PM,37.8,31.3,77,30.18,10.0,Calm,Calm,-,N/A,,Mostly Cloudy,0,2012-11-14 22:15:00
4:35 PM,35.2,30.9,84,30.17,10.0,Calm,Calm,-,N/A,,Scattered Clouds,0,2012-11-14 22:35:00
4:55 PM,33.6,30.6,89,30.17,10.0,Calm,Calm,-,N/A,,Clear,0,2012-11-14 22:55:00
5:15 PM,30.7,28.6,92,30.17,10.0,Calm,Calm,-,N/A,,Clear,0,2012-11-14 23:15:00
5:35 PM,33.1,30.4,90,30.17,10.0,Calm,Calm,-,N/A,,Clear,0,2012-11-14 23:35:00
5:55 PM,29.7,28.2,94,30.17,10.0,Calm,Calm,-,N/A,,Clear,0,2012-11-14 23:55:00
6:15 PM,31.5,30.4,96,30.17,10.0,Calm,Calm,-,N/A,,Clear,0,2012-11-15 00:15:00
6:35 PM,29.1,28.0,96,30.17,10.0,Calm,Calm,-,N/A,,Clear,0,2012-11-15 00:35:00
6:55 PM,29.3,28.0,95,30.16,10.0,Calm,Calm,-,N/A,,Clear,0,2012-11-15 00:55:00
7:15 PM,26.8,25.9,96,30.16,7.0,Calm,Calm,-,N/A,,Clear,0,2012-11-15 01:15:00
7:35 PM,29.7,28.6,96,30.16,10.0,Calm,Calm,-,N/A,,Clear,0,2012-11-15 01:35:00
7:55 PM,26.6,25.5,96,30.16,10.0,Calm,Calm,-,N/A,,Clear,0,2012-11-15 01:55:00
8:35 PM,26.2,24.6,94,30.16,7.0,Calm,Calm,-,N/A,,Clear,0,2012-11-15 02:35:00
8:55 PM,25.5,24.1,94,30.16,7.0,Calm,Calm,-,N/A,,Clear,0,2012-11-15 02:55:00
9:15 PM,26.1,25.7,99,30.16,7.0,Calm,Calm,-,N/A,,Clear,0,2012-11-15 03:15:00
9:35 PM,24.8,23.9,96,30.15,7.0,Calm,Calm,-,N/A,,Clear,0,2012-11-15 03:35:00
9:55 PM,23.2,22.1,96,30.15,5.0,Calm,Calm,-,N/A,,Clear,0,2012-11-15 03:55:00
10:15 PM,24.6,23.9,97,30.15,4.0,Calm,Calm,-,N/A,,Clear,0,2012-11-15 04:15:00
10:35 PM,22.6,21.4,95,30.14,4.0,Calm,Calm,-,N/A,,Clear,0,2012-11-15 04:35:00
10:55 PM,23.7,22.8,96,30.14,7.0,Calm,Calm,-,N/A,,Clear,0,2012-11-15 04:55:00
11:15 PM,23.5,22.6,96,30.14,4.0,Calm,Calm,-,N/A,,Clear,0,2012-11-15 05:15:00
11:35 PM,23.4,22.6,97,30.14,5.0,Calm,Calm,-,N/A,,Clear,0,2012-11-15 05:35:00
11:55 PM,23.7,23.4,99,30.13,7.0,Calm,Calm,-,N/A,,Clear,0,2012-11-15 05:55:00